Location: Bad Salzschlirf
(50.3750°N, 9.3000°E)
Time: 17:51:11
(UTC+02:00)

ISS - Pass Details

Date: 28 May 2020
Orbit: 417 x 420 km, 51.6° (Epoch: 26 May)

Event Time Altitude Azimuth Distance (km) Brightness Sun altitude
Rises 23:56:52 0° 284° (WNW) 2,367 0.6 -15.8°
Reaches altitude 10° 23:59:15 10° 269° (W) 1,500 -0.7 -15.9°
Enters shadow 00:01:47 22° 220° (SW) 982 -2.2 -16.1°
